Regional Weather Roundup
Issued by NWS

Home | Current Version | Previous Version | Text Only | Print | Product List | Glossary Off
Versions: 1 2 3 4 5 6 7 8 9 10 11 12 13 14 15 16 17 18 19 20 21 22 23 24 25 26 27 28 29 30 31 32 33 34 35 36 37 38 39 40 41 42 43 44 45 46 47 48 49 50

000
ASUS43 KIND 201709
RWRIN

WEATHER ROUNDUP FOR INDIANA
NATIONAL WEATHER SERVICE INDIANAPOLIS IN
1200 PM EST SAT DEC 20 2014

NOTE: "FAIR" INDICATES FEW OR NO CLOUDS BELOW 12,000 FEET WITH NO
SIGNIFICANT WEATHER AND/OR OBSTRUCTIONS TO VISIBILITY.

* - STATION DOES NOT REPORT WEATHER SUCH AS PRECIPITATION OR FOG.

+ - STATION NOT QUALITY CONTROLLED BY THE NATIONAL WEATHER SERVICE.
    USE DATA WITH CAUTION...ESPECIALLY DEWPOINT AND RELATIVE
    HUMIDITY OBSERVATIONS.

INZ001>003-010>013-019-020-201800-
NORTHWEST INDIANA

CITY           SKY/WX    TMP DP  RH WIND       PRES   REMARKS
GARY /AIRPORT/ CLOUDY    34  23  64 CALM      30.30S
KNOX *+        CLOUDY    32  20  62 CALM      30.28F
LA PORTE +     CLOUDY    33  26  72 SW5       30.29S WCI  29
MICHIGAN CITY+ CLOUDY    32  19  59 SW8       30.29F WCI  25
MONTICELLO +   CLOUDY    32  28  86 CALM      30.29F
RENSSELAER +   CLOUDY    32  30  93 S3        30.30F
VALPARAISO     CLOUDY    32  24  72 SW7       30.30S WCI  26

$$

LMZ046-743>745-201800-
SOUTHERN LAKE MICHIGAN

STATION/POSITION TIME  TEMP WIND        PRES
                       AIR  DIR/SP/G
                 (UTC) (F)  (DEG/KT/KT) (MB)

$$

INZ004-005-014>016-021>024-201800-
NORTH CENTRAL INDIANA

CITY           SKY/WX    TMP DP  RH WIND       PRES   REMARKS
ELKHART        DRIZZLE   28  25  86 CALM      30.29F
GOSHEN         CLOUDY    30  27  88 CALM      30.28S FOG
LOGANSPORT +   CLOUDY    32  28  86 CALM      30.30F FOG
PERU/GRISSOM   CLOUDY    31  31 100 W3        30.29S
ROCHESTER +    PTSUNNY   34  30  86 W3        30.30S
SOUTH BEND     CLOUDY    31  26  82 W8        30.29S WCI  23
WARSAW +       CLOUDY    32  27  80 SW5       30.28S WCI  27

$$

INZ006>009-017-018-025>027-201800-
NORTHEAST INDIANA

CITY           SKY/WX    TMP DP  RH WIND       PRES   REMARKS
ANGOLA *+      SUNNY     28  23  80 VRB3      30.26F
AUBURN +       PTSUNNY   32  25  74 CALM      30.28F
FORT WAYNE     CLOUDY    31  28  89 SW6       30.28F FOG     WCI  25
HUNTINGTON +   CLOUDY    31  27  85 CALM      30.28F FOG

$$

INZ028-029-035-036-043>045-051>053-201800-
WEST CENTRAL INDIANA

CITY           SKY/WX    TMP DP  RH WIND       PRES   REMARKS
GREENCASTLE +  CLOUDY    32  23  69 CALM      30.30F
LAFAYETTE      CLOUDY    31  27  85 CALM      30.31F
TERRE HAUTE    CLOUDY    33  24  69 CALM      30.32S

$$

INZ030>032-037>040-046>048-054>057-064-065-201800-
CENTRAL INDIANA

CITY           SKY/WX    TMP DP  RH WIND       PRES   REMARKS
CP ATTERBURY + CLOUDY    32  27  80 MISG      30.30F
COLUMBUS       CLOUDY    30  27  86 N3        30.32S
FRANKFORT +    PTSUNNY   31  31 100 W3        30.31S
INDIANAPOLIS   CLOUDY    31  23  72 W3        30.28F
-EAGLE CREEK   CLOUDY    31  23  72 CALM      30.29F
KOKOMO *+      CLOUDY    30  25  80 W3        30.29S
MARION +       CLOUDY    30  28  90 W3        30.29F FOG
MT COMFORT *+  CLOUDY    32  18  55 CALM      30.29F
SHELBYVILLE    CLOUDY    34  25  69 NE3       30.29F
ZIONSVILLE +   CLOUDY    31  24  76 CALM      30.29F

$$

INZ033-034-041-042-049-050-058-059-201800-
EAST CENTRAL INDIANA

CITY           SKY/WX    TMP DP  RH WIND       PRES   REMARKS
MUNCIE         CLOUDY    31  25  78 CALM      30.27F

$$

INZ060-061-067>069-081>083-085>088-201800-
SOUTHWEST INDIANA

CITY           SKY/WX    TMP DP  RH WIND       PRES   REMARKS
EVANSVILLE     CLOUDY    35  26  69 CALM      30.33S
HUNTINGBURG *+ CLOUDY    34  25  69 N3        30.32S
WASHINGTON +   CLOUDY    32  24  72 CALM      30.32S

$$

INZ062-063-066-070>080-084-089>092-201800-
SOUTH CENTRAL AND SOUTHEAST INDIANA

CITY           SKY/WX    TMP DP  RH WIND       PRES   REMARKS
BLOOMINGTON    CLOUDY    31  25  78 SE5       30.29F WCI  26

$$



USA.gov is the U.S. government's official web portal to all federal, state and local government web resources and services.